Weather History for Millinocket, ME

Change the Weather History Date:

Wednesday, February 13, 2013

  Actual Average Record
Temperature  
Mean Temperature 28 °F 18 °F  
Max Temperature 38 °F 28 °F 47 °F (1913)
Min Temperature 17 °F 8 °F -23 °F (1911)
Degree Days  
Heating Degree Days 37 47  
Month to date heating degree days 656 638  
Since 1 July heating degree days 5035 5384  
Cooling Degree Days 0 0  
Month to date cooling degree days 0 0  
Year to date cooling degree days 0 0  
Moisture  
Dew Point 21 °F    
Average Humidity 66    
Maximum Humidity 84    
Minimum Humidity 47    
Precipitation  
Precipitation T in 0.08 in 1.65 in (2008)
Month to date precipitation 0.47 0.81  
Year to date precipitation 1.81 3.74  
Snow  
Snow 0.00 in - - ()
Snow Depth 0.00 in    
Sea Level Pressure  
Sea Level Pressure 29.74 in    
Wind  
Wind Speed 6 mph (WNW)    
Max Wind Speed 18 mph    
Max Gust Speed 24 mph    
Visibility 10 miles    
Events      
T = Trace of Precipitation, MM = Missing Value Source: NWS Daily Summary

Daily Weather History Graph

Daily Weather History Graph

Search for Another Location

Airport:

Trip Planner

Search our weather history database for the weather conditions in past years. The results will help you decide how hot, cold, wet, or windy it might be!

Date:

Astronomy

Feb. 13, 2013 Rise Set
Actual Time 6:39 AM EST 4:59 PM EST
Civil Twilight 6:08 AM EST 5:29 PM EST
Nautical Twilight 5:34 AM EST 6:04 PM EST
Astronomical Twilight 4:59 AM EST 6:39 PM EST
Moon 7:53 AM EST 9:13 PM EST
Length of Visible Light 11h 20m
Length of Day
10h 19m
Waxing Crescent, 13% of the Moon is Illuminated
Feb 13
Waxing Crescent
Feb 17
First Quarter
Feb 25
Full
Mar 4
Last Quarter
Mar 11
New

Hourly Weather History & Observations

Time (EST) Temp. Windchill Dew Point Humidity Pressure Visibility Wind Dir Wind Speed Gust Speed Precip Events Conditions
12:48 AM 35.6 °F 29.9 °F 26.6 °F 70% 29.66 in 10.0 mi WNW 6.9 mph - N/A   Overcast
12:53 AM 35.1 °F 27.9 °F 26.1 °F 70% 29.69 in 10.0 mi West 9.2 mph - N/A   Overcast
1:53 AM 34.0 °F 29.8 °F 26.1 °F 73% 29.69 in 10.0 mi West 4.6 mph - N/A   Overcast
2:53 AM 34.0 °F 27.2 °F 25.0 °F 70% 29.68 in 10.0 mi WNW 8.1 mph - N/A   Overcast
3:19 AM 33.8 °F 25.3 °F 24.8 °F 70% 29.66 in 10.0 mi West 11.5 mph 17.3 mph N/A   Overcast
3:53 AM 33.1 °F 24.9 °F 24.1 °F 70% 29.70 in 10.0 mi WNW 10.4 mph 17.3 mph N/A   Overcast
4:53 AM 33.1 °F 25.5 °F 23.0 °F 66% 29.71 in 10.0 mi WNW 9.2 mph 18.4 mph N/A   Overcast
5:08 AM 32.0 °F 24.2 °F 23.0 °F 69% 29.69 in 10.0 mi WNW 9.2 mph 19.6 mph N/A   Overcast
5:53 AM 30.9 °F 24.3 °F 21.0 °F 67% 29.73 in 10.0 mi West 6.9 mph 18.4 mph N/A   Overcast
6:53 AM 30.0 °F 21.7 °F 21.0 °F 69% 29.75 in 10.0 mi WNW 9.2 mph - N/A   Overcast
7:53 AM 30.0 °F 24.1 °F 21.0 °F 69% 29.76 in 10.0 mi WNW 5.8 mph 16.1 mph N/A   Overcast
8:53 AM 30.9 °F 23.5 °F 21.9 °F 69% 29.77 in 10.0 mi NW 8.1 mph - N/A   Overcast
9:22 AM 30.2 °F 21.3 °F 21.2 °F 69% 29.74 in 10.0 mi WNW 10.4 mph - N/A   Overcast
9:44 AM 30.2 °F 21.9 °F 21.2 °F 69% 29.74 in 10.0 mi NW 9.2 mph 16.1 mph N/A   Overcast
9:53 AM 30.9 °F 21.7 °F 21.9 °F 69% 29.77 in 10.0 mi WNW 11.5 mph 17.3 mph N/A   Overcast
12:53 PM 36.0 °F 29.0 °F 19.9 °F 52% 29.74 in 10.0 mi West 9.2 mph 18.4 mph N/A   Clear
2:53 PM 37.0 °F 29.8 °F 19.9 °F 50% 29.74 in 10.0 mi WNW 10.4 mph 17.3 mph N/A   Partly Cloudy
3:53 PM 36.0 °F 29.0 °F 18.0 °F 48% 29.75 in 10.0 mi WNW 9.2 mph 17.3 mph N/A   Clear
4:53 PM 32.0 °F 26.4 °F 19.0 °F 59% 29.75 in 10.0 mi WNW 5.8 mph - N/A   Clear
5:53 PM 30.0 °F - 18.0 °F 61% 29.76 in 10.0 mi Calm Calm - N/A   Clear
6:53 PM 28.0 °F 24.2 °F 18.0 °F 66% 29.76 in 10.0 mi WNW 3.5 mph - N/A   Clear
8:53 PM 24.1 °F - 18.0 °F 77% 29.79 in 10.0 mi Calm Calm - N/A   Clear
9:53 PM 19.9 °F - 16.0 °F 85% 29.79 in 7.0 mi Calm Calm - N/A   Clear
10:53 PM 19.9 °F 12.1 °F 15.1 °F 81% 29.79 in 7.0 mi NW 5.8 mph - N/A   Clear
11:53 PM 17.1 °F - 14.0 °F 88% 29.79 in 7.0 mi Calm Calm - N/A   Clear